Location: ????????
(55.7090°N, 38.7244°E)
Time: 11:02:58
(UTC+00:00)

Daily predictions for brighter satellites

Satellite Brightness Start Highest point End
(mag) Time Altitude Azimuth Time Altitude Azimuth Time Altitude Azimuth
ATLAS 2AS CENTAUR R/B 3.0 18:59:18 10° NW 19:06:27 64° SW 19:13:06 10° SSE
Cosmos 1607 4.3 19:01:18 10° SSW 19:07:07 43° ESE 19:12:54 10° NE
Cosmos 1980 Rocket 3.4 19:07:06 10° NNW 19:12:25 37° NE 19:17:41 10° ESE
USA 234 3.5 19:08:11 10° SE 19:14:42 62° SSW 19:21:13 10° WNW
Helios 1A Rocket 3.9 19:11:18 10° S 19:15:10 42° W 19:19:06 10° NNW
Cosmos 1455 2.6 19:12:52 10° NNW 19:16:37 59° W 19:20:22 10° S
Cosmos 1697 Rocket 3.2 19:11:09 10° NNW 19:16:43 57° NE 19:22:15 10° SE
Cosmos 1703 4.0 19:17:07 10° SSE 19:20:41 37° E 19:24:17 10° NNE
Cosmos 1536 Rocket 3.8 19:17:13 10° S 19:21:24 52° E 19:25:39 10° NNE
Meteor 1-24 Rocket 3.8 19:17:27 10° SSW 19:22:46 81° WNW 19:28:14 10° NNE
Cosmos 2184 Rocket 4.0 19:18:07 10° N 19:24:19 87° E 19:30:31 10° S
Cosmos 1606 Rocket 4.1 19:21:15 10° N 19:25:27 47° ENE 19:29:37 10° SSE
Cosmos 1624 Rocket 4.0 19:20:31 10° SSW 19:25:45 78° ESE 19:30:59 10° NNE
Lacrosse 4 Rocket 2.9 19:23:36 10° WSW 19:27:31 40° NW 19:31:23 10° NNE
SPOT 5 3.9 19:23:44 10° SSW 19:27:50 35° W 19:31:52 10° NNW
Cosmos 1975 Rocket 4.0 19:23:36 10° SSW 19:27:56 50° WNW 19:32:16 10° N
CZ-2C R/B 3.9 19:29:25 10° NNE 19:34:06 82° WNW 19:38:41 10° SSW
Cosmos 2228 3.0 19:30:53 10° N 19:35:09 80° ENE 19:39:24 10° SSE
SJ 16-02 4.1 19:33:44 10° N 19:35:35 12° NNE 19:37:26 10° NE
Cosmos 1656 3.8 19:34:26 10° NW 19:39:51 66° WSW 19:45:17 10° SSE
Meteor 2-1 Rocket 4.3 19:34:32 10° NNW 19:40:04 72° ENE 19:45:34 10° SSE
RESURS DK-1 2.4 19:36:29 10° NW 19:40:38 87° NE 19:44:47 10° SE
Cosmos 2322 Rocket 4.4 19:37:03 10° NNW 19:41:33 23° NNE 19:46:03 10° ENE
Cosmos 2360 4.4 19:37:01 10° NNW 19:42:47 77° NE 19:48:31 10° SE
Lacrosse 5 rocket 2.9 19:42:48 10° W 19:45:40 20° SW 19:48:38 10° S
Cosmos 2056 Rocket 3.8 19:40:20 10° SSW 19:45:44 79° WNW 19:51:13 10° NNE
Cosmos 1741 Rocket 4.1 19:40:43 10° NNW 19:46:03 78° WSW 19:51:17 10° SSE
Cosmos 2344 4.2 19:38:09 10° NW 19:46:30 88° SW 19:57:58 10° SE
ERS-1 Rocket 4.5 19:46:23 10° SSW 19:50:49 30° W 19:55:16 10° NNW
Cosmos 1833 Rocket 3.6 19:46:08 10° SSE 19:50:57 30° ESE 19:55:48 10° NE
Cosmos 1726 Rocket 3.7 19:47:16 10° N 19:51:35 63° ENE 19:55:39 11° SSE
Lacrosse 5 2.8 19:48:14 10° WNW 19:52:48 33° SW 19:57:08 11° SSE
Cosmos 1420 Rocket 4.2 19:51:43 10° SSW 19:56:59 79° WNW 20:02:19 10° NNE
ALOS 2 3.4 19:52:54 10° SE 19:57:03 42° ENE 20:01:12 10° N
Cosmos 2084 Rocket 3.5 19:57:47 10° NW 20:01:38 67° NNE 20:05:36 10° ESE
SL-8 R/B 4.4 19:57:55 10° WSW 20:02:15 34° S 20:06:37 10° ESE
Cosmos 968 Rocket 3.9 19:57:44 10° NNW 20:02:52 60° ENE 20:08:01 10° SE
Cosmos 2084 3.2 19:59:45 10° SW 20:03:31 56° SE 20:07:20 10° ENE
Cosmos 2082 Rocket 3.8 20:03:18 10° SE 20:07:16 20° E 20:11:14 10° NE
Terra 3.7 20:09:07 10° SW 20:12:57 24° W 20:16:48 10° NW
ARIANE 5 R/B 4.3 20:10:21 10° SSW 20:14:08 26° W 20:17:54 10° NW
Cosmos 1900 4.5 20:10:32 10° NW 20:15:44 78° SW 20:20:43 11° SE
Cosmos 2058 Rocket 3.2 20:12:48 10° N 20:17:12 68° ENE 20:21:05 13° SSE
FALCON 9 DEB 3.1 20:15:17 10° WSW 20:18:28 49° S 20:21:39 10° E
USA 267 3.2 20:14:16 10° ENE 20:20:49 67° SSE 20:27:20 10° SW
Cosmos 2360 Rocket 4.2 20:18:47 10° NNW 20:23:33 26° NNE 20:28:19 10° E
SAR-Lupe-4 4.1 20:21:50 10° N 20:25:22 59° WNW 20:28:54 10° SSW
GP-B 3.1 20:21:09 10° N 20:25:37 89° ENE 20:29:38 13° S
Cosmos 1869 4.0 20:24:32 10° N 20:28:14 43° ENE 20:31:35 12° SE
USA 276 3.4 20:27:48 16° S 20:28:33 17° SSE 20:30:35 10° ESE
Cosmos 1892 Rocket 3.7 20:25:12 13° S 20:29:05 63° E 20:33:27 10° NNE
ADEOS Rocket 3.6 20:28:53 12° SSE 20:35:36 84° ENE 20:43:19 10° NNW
COSMOS 2406 3.9 20:31:18 13° S 20:36:03 39° ESE 20:41:22 10° NE
Spot 4 4.1 20:32:50 13° S 20:37:01 65° WSW 20:41:49 10° NNW
Cosmos 1867 3.7 20:32:15 10° NW 20:37:47 85° NE 20:43:15 10° SE
ASTEX 1 3.8 20:35:00 10° N 20:39:57 64° WNW 20:44:54 10° SSW
Cosmos 2369 3.8 20:35:04 10° NW 20:40:48 75° WSW 20:46:00 13° SSE
Nadezhda 1 Rocket 4.3 20:35:08 10° SSW 20:41:13 66° WNW 20:47:17 10° N
Cosmos 1408 2.6 20:39:06 16° S 20:41:44 59° E 20:45:09 10° NNE
TSX-5 4.5 20:38:47 10° SW 20:43:23 85° SE 20:49:27 10° NE
Cosmos 1331 Rocket 4.0 20:39:06 10° SSW 20:44:22 73° ESE 20:49:42 10° NNE
Meteor 1-11 4.3 20:40:03 13° S 20:45:07 69° E 20:50:42 10° NNE
SL-16 R/B 3.2 20:39:50 10° NNW 20:45:19 46° NE 20:50:46 10° ESE
Cosmos 1626 Rocket 4.4 20:44:15 14° SSE 20:47:34 37° E 20:51:34 10° NNE
Cosmos 1452 Rocket 3.8 20:42:19 10° SW 20:47:35 73° WNW 20:52:52 10° NNE
Okean 1-7 Rocket 4.2 20:46:16 14° SSE 20:49:45 45° E 20:54:01 10° NNE
Cosmos-2242 4.0 20:47:50 10° N 20:51:51 39° ENE 20:55:46 10° SE
Cosmos 724 4.3 20:46:21 10° SW 20:52:10 85° NW 20:58:02 10° NE
H-2A R/B 3.6 20:49:10 10° NNE 20:53:22 67° ESE 20:56:51 15° S
Cosmos 1607 4.4 20:48:02 10° WSW 20:54:13 66° NW 21:00:23 10° NE
Cosmos 1825 2.9 20:51:38 15° SSE 20:54:21 41° E 20:57:55 10° NNE
Cosmos 1606 4.2 20:52:31 10° N 20:55:55 29° ENE 20:59:20 10° SE
ATLAS 2AS CENTAUR R/B 4.4 20:51:26 10° WNW 20:56:03 19° WSW 21:00:30 10° SSW
Cosmos 1980 Rocket 2.3 20:51:09 10° NW 20:56:50 67° WSW 21:01:47 14° SSE
Cosmos 1328 4.5 20:53:34 10° SSW 20:57:31 52° WNW 21:01:28 10° N
USA 234 4.4 20:54:06 13° S 20:58:37 26° SW 21:03:58 10° WNW
Cosmos 1697 Rocket 3.5 20:55:25 10° NW 21:00:33 37° WSW 21:04:56 13° S
Cosmos 1110 Rocket 4.1 20:58:17 10° SSW 21:03:34 80° WNW 21:08:55 10° NNE
Cosmos 2219 Rocket 4.4 21:01:18 10° NNW 21:05:59 26° NNE 21:10:42 10° E
ERS-2 2.5 21:04:32 10° NNE 21:08:03 48° ESE 21:10:36 17° S
Cosmos 1302 Rocket 4.1 21:03:41 14° S 21:08:09 61° ESE 21:13:18 10° NNE
SL-8 Rocket 4.4 21:08:02 10° NNW 21:14:09 56° W 21:19:35 13° SSW
SJ 16-02 2.5 21:11:08 10° NNW 21:15:23 42° NE 21:19:36 10° SE
In-Cosmos 22 Rocket 4.2 21:11:09 14° S 21:16:04 80° ESE 21:21:36 10° NNE
Cosmos 1892 2.8 21:14:07 14° SSW 21:17:14 69° WNW 21:21:01 10° N
RESURS DK-1 4.4 21:15:30 10° WNW 21:18:04 16° WSW 21:20:38 10° SW
BREEZE-M DEB (TANK) 4.4 21:10:41 10° SW 21:18:18 30° S 21:21:26 10° ESE
Cosmos 2333 Rocket 4.0 21:13:17 10° NNW 21:18:29 33° NE 21:23:40 10° E
Cosmos 2218 Rocket 4.4 21:13:29 10° NNW 21:19:46 60° W 21:25:20 14° S
Geosat 4.1 21:18:17 10° SE 21:23:19 82° NE 21:28:23 10° NNW
Cosmos 2278 3.8 21:21:02 10° NW 21:26:43 65° WSW 21:31:48 13° SSE
Cosmos 2322 Rocket 2.8 21:21:08 10° NNW 21:26:46 60° NE 21:32:23 10° SE
Aureole 1 Rocket 4.3 21:20:28 10° NNW 21:26:47 84° WSW 21:34:34 10° SSE
Cosmos 2366 rocket 4.5 21:21:53 10° NNW 21:28:00 54° W 21:33:28 13° SSW
CZ-2D R/B 4.4 21:28:13 10° ENE 21:30:26 13° E 21:32:37 10° ESE
Cosmos 1758 Rocket 4.0 21:29:59 15° SSE 21:33:22 52° E 21:37:37 10° NNE
ALOS 2 3.8 21:30:06 13° SSW 21:33:30 31° W 21:37:27 10° NNW
Cosmos 1833 Rocket 3.0 21:28:56 10° SW 21:34:31 68° NW 21:40:10 10° NNE
SL-16 R/B 4.2 21:29:12 10° ESE 21:34:37 32° NE 21:40:02 10° N
Cosmos 2058 4.2 21:34:11 12° SSE 21:37:33 32° E 21:41:19 10° NNE
Cosmos 1812 Rocket 3.7 21:35:36 10° NNW 21:40:04 68° W 21:43:39 15° S
Cosmos 2084 Rocket 4.3 21:37:27 10° WNW 21:40:48 28° SW 21:43:08 16° S
Cosmos 2221 3.7 21:44:12 10° N 21:48:16 39° ENE 21:52:21 10° SE
Resurs 1-4 Rocket 4.1 21:45:40 10° NE 21:49:19 18° E 21:52:57 10° SE
Cosmos 2082 Rocket 2.2 21:45:07 11° SSW 21:50:34 83° ESE 21:56:19 10° NE
ATLAS 5 CENTAUR R/B 2.9 21:49:33 14° SSE 21:51:42 21° ESE 21:54:56 10° ENE
SL-19 R/B 4.1 21:51:26 15° SSE 21:54:16 82° WSW 21:58:17 10° NNW
FALCON 9 DEB 3.2 21:51:21 10° W 21:54:30 44° SSW 21:57:39 10° ESE
Cosmos 2237 4.3 21:49:32 10° NW 21:55:20 83° NE 22:01:05 10° SE
Meteor 2-2 Rocket 4.5 21:52:12 10° NNW 21:58:11 83° ENE 22:04:05 11° SSE
Cosmos 1602 Rocket 3.6 21:55:07 15° SSW 21:58:41 75° WNW 22:03:03 10° N
Cosmos 1633 2.5 21:57:32 16° SSW 22:00:13 75° WNW 22:03:43 10° N
USA 276 2.9 22:00:45 10° WSW 22:03:16 26° S 22:05:47 10° ESE
USA 267 3.4 21:57:28 10° ENE 22:04:02 83° N 22:10:37 10° W
COSMOS 2428 4.4 22:01:22 10° NNW 22:06:38 36° NE 22:11:53 10° ESE
Cosmos 1934 Rocket 4.0 22:01:28 10° NNW 22:07:36 90° ESE 22:13:26 11° S
Cosmos 2360 Rocket 2.5 22:02:47 10° NNW 22:08:31 74° NE 22:14:11 10° SE
Cosmos 1238 4.2 22:12:41 17° SSW 22:14:54 75° W 22:18:03 10° N
COSMOS 2406 3.8 22:14:34 10° SW 22:20:14 56° NW 22:25:56 10° NNE
Cosmos 1953 Rocket 3.9 22:18:01 13° S 22:21:55 61° E 22:26:19 10° NNE
Cosmos 1354 Rocket 4.3 22:18:56 10° NW 22:24:07 53° WSW 22:28:58 11° S
BREEZE-M DEB (TANK) 4.3 22:24:50 14° S 22:26:59 24° SE 22:32:57 10° E
Cosmos 1992 Rocket 4.2 22:23:25 11° SW 22:28:26 75° WNW 22:33:43 10° NNE
Cosmos-2242 4.2 22:25:34 10° NNW 22:29:17 30° W 22:32:34 12° SSW
SL-16 R/B 2.5 22:24:04 10° NW 22:29:33 49° WSW 22:34:58 10° S
Cosmos 1825 3.9 22:26:47 10° WSW 22:29:52 24° WNW 22:32:58 10° N
Cosmos 1606 3.7 22:28:04 10° NNW 22:31:33 34° W 22:34:28 13° SSW
ADEOS II 3.9 22:32:28 10° NE 22:36:40 24° E 22:40:51 10° SE
Cosmos 1825 Rocket 3.6 22:33:22 13° SSW 22:37:08 70° WNW 22:41:29 10° N
Cosmos 1340 Rocket 2.9 22:34:26 13° S 22:37:50 71° E 22:41:47 10° NNE
Cosmos 1980 Rocket 4.1 22:36:42 10° WNW 22:39:48 15° W 22:42:52 10° SW
ERS-2 4.1 22:38:20 10° N 22:41:09 22° WNW 22:43:57 10° WSW
Cosmos 1605 Rocket 4.1 22:34:55 10° NNW 22:41:21 83° W 22:47:46 10° S
Nadezhda 3 Rocket 4.4 22:38:37 11° SSW 22:44:27 56° WNW 22:50:31 10° N
MOZ.5/SAFIR/RUBIN 5/SL-8 3.9 22:40:25 11° S 22:45:03 63° WSW 22:49:47 10° NNW
Cosmos 1842 Rocket 3.6 22:42:46 10° NNW 22:47:17 85° W 22:51:47 10° S
Meteor 2-3 Rocket 4.4 22:43:02 10° SSE 22:48:25 49° E 22:53:47 10° NNE
Cosmos 990 Rocket 4.4 22:44:25 10° NNW 22:49:35 66° ENE 22:54:42 10° SE
Cosmos 2219 Rocket 2.5 22:45:15 10° NNW 22:50:56 71° NE 22:56:36 10° SE
SJ 16-02 2.2 22:49:52 10° NW 22:53:52 34° WSW 22:57:37 11° SSW
SL-24 DEB 4.4 22:50:45 10° SSE 22:55:20 72° E 22:59:56 10° N
Cosmos 1076 Rocket 4.2 22:52:01 10° S 22:56:15 51° E 23:00:31 10° NNE
Cosmos 1782 3.0 22:52:58 10° N 22:56:59 73° ENE 23:00:58 10° SSE
Cosmos 972 Rocket 4.2 22:53:01 10° NNW 22:57:52 56° WSW 23:03:01 10° S
Cosmos 2333 Rocket 2.2 22:57:34 10° NW 23:03:22 81° WSW 23:09:08 10° SSE
Meteor 1-28 Rocket 4.0 23:01:56 10° SE 23:05:30 50° ENE 23:09:06 10° N
COSMOS 2487 4.5 23:03:46 10° SE 23:05:49 16° ESE 23:07:52 10° ENE
Cosmos 1898 Rocket 4.0 23:01:14 10° NNW 23:06:26 63° ENE 23:11:34 10° SE
Cosmos 2322 Rocket 2.9 23:05:30 10° NW 23:10:37 36° WSW 23:15:43 10° S
CZ-2D R/B 2.4 23:06:21 10° NNE 23:11:34 64° ESE 23:16:44 10° S
COSMOS 2455 4.1 23:07:08 10° NW 23:12:58 47° NNE 23:18:46 10° ESE
YAOGAN 11 4.4 23:08:43 10° SSE 23:13:18 79° ENE 23:17:51 10° NNW
Cosmos 2058 4.0 23:10:30 10° SW 23:14:23 35° WNW 23:18:17 10° N
Cosmos 1151 Rocket 4.3 23:13:24 10° N 23:17:35 41° ENE 23:21:45 10° SE
SL-16 R/B 2.6 23:11:31 10° SSE 23:17:47 75° WSW 23:24:06 10° NNW
IDEFIX/ARIANE 42P 3.6 23:13:40 10° NNE 23:18:37 40° E 23:23:30 10° SSE
USA 290 3.1 23:17:01 10° NNW 23:20:13 53° ENE 23:23:24 10° SE
Cosmos 1933 3.6 23:18:02 10° NNW 23:21:58 53° W 23:25:51 10° S
Thor Agena Rocket 3.7 23:18:09 10° NNE 23:23:25 72° WNW 23:28:34 10° SSW
Cosmos 2221 3.6 23:21:55 10° NNW 23:25:45 31° W 23:29:34 10° SSW
Cosmos 1937 Rocket 4.0 23:22:12 10° NNW 23:27:31 68° ENE 23:32:44 10° SE
Resurs 1-4 Rocket 2.2 23:24:33 10° NNE 23:29:55 87° ESE 23:35:16 10° SSW
FALCON 9 DEB 4.4 23:27:52 10° WSW 23:30:16 19° SSW 23:32:39 10° SSE
Cosmos 2082 Rocket 3.7 23:30:12 10° W 23:35:18 32° NW 23:40:24 10° NNE
ATLAS 5 CENTAUR R/B 1.5 23:31:44 10° WSW 23:35:38 78° NW 23:40:13 10° NE
Helios 1A 3.1 23:31:32 10° SSE 23:35:44 80° ENE 23:39:57 10° NNW
SL-4 R/B 4.0 23:34:45 10° SSE 23:36:34 13° SE 23:38:25 10° ESE
USA 276 3.4 23:35:52 10° WSW 23:38:00 18° SSW 23:40:06 10° SSE
SAR-Lupe-2 4.3 23:37:41 10° NNE 23:41:13 49° ESE 23:44:42 10° S
Cosmos 1833 4.3 23:39:09 10° SSW 23:44:45 74° ESE 23:50:21 10° NE
MOS 1 Rocket 3.9 23:40:28 10° S 23:45:16 48° W 23:50:22 10° NNW
USA 267 3.4 23:40:31 10° E 23:47:04 87° NNE 23:53:40 10° WNW
